Current weather by "City, St" or "zip code"  
 
Advertise Here

Current Conditions: Deming Municipal Airport, NM

Fair


49.0 F

Last Updated on Jan 17 2021, 7:53 pm MST
Humidity: 16%
Wind Speed: W 6.9 mph
Barometer 30.06 in
Dewpoint: 3.9 F
Visibility: 10.00 mi
Precip: --
Heat Index: NA
Wind Chill: 46 F
Current conditions at:

Deming Municipal Airport, NM (KDMN)

Lat: 32.25927 Lon: 107.72051

Local Radar Image active severe weather and emergency alerts image image weather storm and storm spotter reports image weather observation monitoring service image
Local
Radar
Active
Alerts
Storm Reports Obs
Monitoring

Sign-up For Email & Text Message Weather Alert Notification Services


Advertise Here

Observation History for Deming Municipal Airport, NM


Time Wind
(mph)
Vis
(mi)
Weather Precip (in) Temperature (F) Relative
Humidity
Wind
Chill
(F)
Heat
Index
(F)
Pressure
Air Dwpt altimeter
(in)
sea level
(mb)
Rmks
7:53 pm MST W 6.9 10.00 Fair -- 49.0 3.9 16% 46 NA 30.06 1016.9
6:53 pm MST W 10.4 10.00 Fair -- 52.0 5.0 15% 48 NA 30.07 1017.3
5:53 pm MST W 9.2 10.00 Fair -- 58.0 7.0 13% 56 NA 30.06 1016.4
4:53 pm MST W 12.7 10.00 Fair -- 65.0 1.9 8% NA NA 30.06 1015.7
3:53 pm MST SW 12.7 10.00 Fair -- 67.0 -2.0 6% NA NA 30.07 1015.5
2:53 pm MST S 10.4 G 21.9 10.00 Fair -- 67.0 10.0 11% NA NA 30.08 1015.6
1:53 pm MST SW 8.1 10.00 Fair -- 64.0 10.0 12% NA NA 30.10 1016.4
12:53 pm MST SW 8.1 10.00 Fair -- 63.0 10.9 13% 63 NA 30.12 1017.0
11:53 am MST SW 8.1 10.00 Fair -- 60.0 12.9 16% 59 NA 30.17 1018.4
10:53 am MST W 9.2 10.00 Fair -- 58.0 10.9 15% 56 NA 30.21 1020.0
9:53 am MST S 3.5 10.00 Fair -- 47.0 10.0 22% NA NA 30.23 1021.5
8:53 am MST S 4.6 10.00 Fair -- 37.0 8.1 30% 33 NA 30.22 1022.3
7:53 am MST SW 3.5 10.00 Fair -- 27.0 7.0 43% NA NA 30.20 1021.8
6:53 am MST N 0.0 10.00 Fair -- 22.0 6.1 50% NA NA 30.21 1022.3
5:53 am MST N 0.0 10.00 Fair -- 24.0 8.1 50% NA NA 30.20 1021.5
4:53 am MST N 0.0 10.00 Fair -- 24.0 7.0 48% NA NA 30.19 1020.5
3:53 am MST SW 4.6 10.00 Fair -- 28.0 9.0 44% 23 NA 30.19 1020.1
2:53 am MST N 0.0 10.00 Fair -- 31.0 10.9 43% NA NA 30.20 1019.7
1:53 am MST NW 6.9 10.00 Fair -- 31.0 10.0 42% 24 NA 30.19 1019.1
12:53 am MST NW 9.2 10.00 Fair -- 36.0 10.0 34% 29 NA 30.17 1018.4
11:53 pm MST NW 4.6 10.00 Fair -- 39.0 10.0 30% 36 NA 30.16 1018.1
10:53 pm MST 5.8 10.00 Fair -- 41.0 10.0 28% 37 NA 30.14 1017.8
9:53 pm MST N 4.6 10.00 Fair -- 40.0 8.1 27% 37 NA 30.14 1018.6
8:53 pm MST E 3.5 10.00 Fair -- 41.0 6.1 23% NA NA 30.14 1019.5

Regional Weather Observation


Grant County Airport, NM (KSVC)

Fair
39.0 F

Lordsburg Municipal Airport, NM (KLSB)

Fair
63.0 F

Las Cruces, Las Cruces International Airport, NM (KLRU)

Fair
51.0 F

Truth Or Consequences, Truth Or Consequences Municipal Airport, NM (KTCS)

Fair
48.0 F

Spaceport America AWOS, NM (K0A0)

Fair
43.0 F

Dona Ana County Jetport, Santa Teresa, NM (KDNA)

Fair
54.0 F